contact:dominique.lefevre@mio.osupytheas.fr, maurice.libes@osupytheas.fr, didier.mallarino@osupytheas.fr
Project:EMSO http://www.emso-fr.org/EMSO-France
Depth: 2436.0 m
Title:EMSO Ligure Ouest : Data MII capteur AQUADOPP
Date,Latitude,Longitude,X_East,Y_North,Z_Up,Amplitude_X,Amplitude_Y,Amplitude_Z,Batterie,SoundSpeed,Heading,Pitch,Roll,Pressure,TIS,Speed,Direction
, degrees North, degrees East, m.s-1, m.s-1,m.s-1, 1, 1, 1, Volt, m.s-1, degree, degree, degree, dbar, degree_C, m.s-1, degree
2020-04-13T00:04:03,42.805,6.029,-0.024,-0.117,-0.008,107.0,106.0,102.0,13.4,1505.2,325.2,-0.8,1.9,2470.365,13.3,0.119,191.6
2020-04-13T00:07:03,42.805,6.029,-0.029,-0.104,-0.043,107.0,106.0,102.0,13.3,1505.3,326.0,-0.7,1.8,2470.353,13.31,0.107,195.6
2020-04-13T00:10:03,42.805,6.029,-0.037,-0.115,-0.02,106.0,106.0,102.0,13.4,1505.3,323.7,-0.7,1.9,2470.332,13.31,0.12,197.8
2020-04-13T00:13:03,42.805,6.029,-0.02,-0.109,-0.007,107.0,105.0,103.0,13.3,1505.3,324.8,-0.7,1.8,2470.358,13.31,0.11,190.4
2020-04-13T00:16:03,42.805,6.029,-0.008,-0.093,-0.014,106.0,106.0,103.0,13.4,1505.3,324.6,-0.7,1.8,2470.333,13.32,0.093,184.9
2020-04-13T00:19:03,42.805,6.029,0.001,-0.127,0.021,107.0,106.0,103.0,13.4,1505.3,324.2,-0.7,1.8,2470.336,13.32,0.127,179.5
2020-04-13T00:22:03,42.805,6.029,-0.026,-0.101,-0.004,106.0,106.0,102.0,13.3,1505.3,324.1,-0.7,1.8,2470.355,13.32,0.104,194.4
2020-04-13T00:25:03,42.805,6.029,-0.025,-0.084,-0.013,106.0,106.0,102.0,13.3,1505.3,325.4,-0.7,1.8,2470.343,13.32,0.087,196.6
2020-04-13T00:28:03,42.805,6.029,-0.023,-0.082,-0.006,106.0,107.0,103.0,13.4,1505.3,323.3,-0.7,1.8,2470.361,13.32,0.085,195.7
2020-04-13T00:31:03,42.805,6.029,-0.023,-0.075,-0.018,106.0,107.0,102.0,13.3,1505.3,325.4,-0.7,1.8,2470.329,13.32,0.078,197.0
2020-04-13T00:34:03,42.805,6.029,-0.02,-0.085,-0.021,106.0,106.0,103.0,13.4,1505.3,326.6,-0.7,1.9,2470.315,13.32,0.087,193.2
2020-04-13T00:37:03,42.805,6.029,-0.01,-0.055,-0.043,107.0,106.0,103.0,13.4,1505.3,324.7,-0.7,1.8,2470.309,13.32,0.055,190.3
2020-04-13T00:40:03,42.805,6.029,-0.017,-0.098,-0.004,106.0,105.0,102.0,13.4,1505.3,327.1,-0.7,1.8,2470.32,13.32,0.099,189.8
2020-04-13T00:43:03,42.805,6.029,-0.003,-0.085,-0.008,107.0,105.0,103.0,13.4,1505.3,326.3,-0.7,1.8,2470.27,13.32,0.085,182.0
2020-04-13T00:46:03,42.805,6.029,-0.022,-0.118,0.002,106.0,105.0,103.0,13.4,1505.3,325.8,-0.7,1.9,2470.339,13.32,0.12,190.6
2020-04-13T00:49:03,42.805,6.029,-0.004,-0.112,-0.008,107.0,106.0,103.0,13.4,1505.3,326.5,-0.8,1.8,2470.274,13.32,0.112,182.0
2020-04-13T00:52:03,42.805,6.029,-0.02,-0.073,-0.03,107.0,106.0,104.0,13.4,1505.3,325.8,-0.7,1.8,2470.295,13.32,0.075,195.3
2020-04-13T00:55:03,42.805,6.029,0.014,-0.082,-0.006,106.0,106.0,104.0,13.4,1505.3,325.5,-0.8,1.9,2470.304,13.32,0.083,170.3
2020-04-13T00:58:03,42.805,6.029,-0.005,-0.108,-0.023,107.0,107.0,102.0,13.4,1505.3,324.1,-0.7,1.8,2470.38,13.32,0.108,182.6
2020-04-13T01:04:03,42.805,6.029,-0.053,-0.096,-0.064,107.0,108.0,104.0,13.3,1505.2,326.1,-0.8,1.8,2470.336,13.3,0.109,208.9
2020-04-13T01:07:03,42.805,6.029,-0.013,-0.07,-0.013,107.0,107.0,102.0,13.4,1505.3,322.7,-0.7,1.8,2470.324,13.31,0.071,190.5
2020-04-13T01:10:03,42.805,6.029,-0.006,-0.08,-0.014,107.0,107.0,102.0,13.4,1505.3,324.7,-0.8,1.8,2470.321,13.31,0.08,184.3
2020-04-13T01:13:03,42.805,6.029,-0.001,-0.081,-0.023,108.0,105.0,104.0,13.4,1505.3,324.5,-0.7,1.9,2470.301,13.31,0.081,180.7
2020-04-13T01:16:03,42.805,6.029,0.008,-0.094,-0.036,107.0,107.0,102.0,13.4,1505.3,324.8,-0.7,1.9,2470.317,13.32,0.094,175.1
2020-04-13T01:19:03,42.805,6.029,-0.026,-0.109,-0.03,107.0,105.0,102.0,13.3,1505.3,327.9,-0.7,1.8,2470.322,13.32,0.112,193.4
2020-04-13T01:22:03,42.805,6.029,-0.04,-0.08,-0.009,106.0,105.0,103.0,13.4,1505.3,326.7,-0.7,1.9,2470.318,13.32,0.089,206.6
2020-04-13T01:25:03,42.805,6.029,-0.033,-0.062,-0.029,106.0,105.0,104.0,13.4,1505.3,327.6,-0.7,1.9,2470.348,13.32,0.07,208.0
2020-04-13T01:28:03,42.805,6.029,-0.04,-0.092,-0.043,107.0,106.0,103.0,13.4,1505.3,327.5,-0.7,1.8,2470.328,13.32,0.1,203.5
2020-04-13T01:31:03,42.805,6.029,-0.014,-0.091,-0.014,106.0,104.0,102.0,13.3,1505.3,328.4,-0.7,1.9,2470.339,13.32,0.092,188.7
2020-04-13T01:34:03,42.805,6.029,-0.035,-0.096,-0.046,106.0,105.0,102.0,13.4,1505.3,327.2,-0.7,1.8,2470.264,13.32,0.102,200.0
2020-04-13T01:37:03,42.805,6.029,-0.012,-0.086,-0.014,106.0,105.0,102.0,13.3,1505.3,328.1,-0.7,1.8,2470.31,13.32,0.086,187.9
2020-04-13T01:40:03,42.805,6.029,-0.008,-0.079,-0.018,107.0,105.0,103.0,13.4,1505.3,328.2,-0.7,1.8,2470.269,13.32,0.079,185.8
2020-04-13T01:43:03,42.805,6.029,-0.028,-0.079,0.0,106.0,105.0,103.0,13.4,1505.3,328.4,-0.7,1.8,2470.283,13.32,0.083,199.5
2020-04-13T01:46:03,42.805,6.029,-0.012,-0.076,-0.012,106.0,107.0,102.0,13.3,1505.3,328.3,-0.7,1.8,2470.323,13.32,0.076,189.0
2020-04-13T01:49:03,42.805,6.029,-0.011,-0.095,-0.039,106.0,107.0,102.0,13.3,1505.3,327.6,-0.8,1.8,2470.289,13.32,0.095,186.6
2020-04-13T01:52:03,42.805,6.029,-0.001,-0.075,-0.044,107.0,106.0,102.0,13.4,1505.3,328.6,-0.7,1.9,2470.291,13.32,0.075,180.8
2020-04-13T01:55:03,42.805,6.029,-0.021,-0.061,-0.019,106.0,107.0,104.0,13.3,1505.3,326.7,-0.7,1.8,2470.285,13.32,0.064,199.0
2020-04-13T01:58:03,42.805,6.029,-0.026,-0.111,0.002,106.0,105.0,103.0,13.4,1505.3,324.5,-0.7,1.8,2470.279,13.32,0.114,193.2
2020-04-13T02:04:03,42.805,6.029,-0.013,-0.075,-0.016,105.0,106.0,103.0,13.3,1505.2,324.3,-0.7,1.8,2470.325,13.3,0.076,189.8
2020-04-13T02:07:03,42.805,6.029,-0.035,-0.099,0.004,106.0,106.0,102.0,13.4,1505.3,326.6,-0.7,1.8,2470.312,13.31,0.105,199.5
2020-04-13T02:10:03,42.805,6.029,-0.017,-0.058,-0.013,108.0,106.0,102.0,13.4,1505.3,326.2,-0.7,1.9,2470.318,13.31,0.06,196.3
2020-04-13T02:13:03,42.805,6.029,-0.008,-0.091,-0.003,106.0,106.0,102.0,13.4,1505.3,324.5,-0.7,1.8,2470.312,13.31,0.091,185.0
2020-04-13T02:16:03,42.805,6.029,-0.004,-0.079,-0.018,106.0,106.0,103.0,13.4,1505.3,323.3,-0.7,1.9,2470.291,13.32,0.079,182.9
2020-04-13T02:19:03,42.805,6.029,-0.009,-0.102,0.017,105.0,106.0,101.0,13.4,1505.3,326.9,-0.7,1.8,2470.308,13.32,0.102,185.0
2020-04-13T02:22:03,42.805,6.029,-0.032,-0.078,-0.038,106.0,106.0,103.0,13.4,1505.3,328.3,-0.7,1.9,2470.312,13.32,0.084,202.3
2020-04-13T02:25:03,42.805,6.029,-0.005,-0.069,-0.012,108.0,107.0,103.0,13.4,1505.3,325.8,-0.7,1.8,2470.299,13.32,0.069,184.1
2020-04-13T02:28:03,42.805,6.029,-0.024,-0.085,-0.009,106.0,106.0,104.0,13.3,1505.3,327.2,-0.7,1.8,2470.33,13.32,0.088,195.8
2020-04-13T02:31:03,42.805,6.029,-0.001,-0.106,-0.018,106.0,105.0,102.0,13.4,1505.3,328.3,-0.7,1.8,2470.249,13.32,0.106,180.5
2020-04-13T02:34:03,42.805,6.029,-0.023,-0.086,-0.012,106.0,105.0,102.0,13.4,1505.3,324.4,-0.7,1.8,2470.286,13.32,0.089,195.0
2020-04-13T02:37:03,42.805,6.029,-0.014,-0.088,-0.017,105.0,106.0,102.0,13.3,1505.3,325.5,-0.7,1.8,2470.318,13.32,0.089,189.0
2020-04-13T02:40:03,42.805,6.029,-0.006,-0.065,-0.042,107.0,105.0,101.0,13.4,1505.3,324.1,-0.7,1.8,2470.251,13.32,0.065,185.3
2020-04-13T02:43:03,42.805,6.029,-0.017,-0.091,-0.017,106.0,105.0,103.0,13.4,1505.3,324.9,-0.7,1.8,2470.282,13.32,0.092,190.6
2020-04-13T02:46:03,42.805,6.029,-0.017,-0.081,-0.005,106.0,106.0,102.0,13.3,1505.3,324.7,-0.7,1.8,2470.298,13.32,0.082,191.9
2020-04-13T02:49:03,42.805,6.029,-0.02,-0.111,-0.017,105.0,106.0,102.0,13.3,1505.3,325.7,-0.7,1.8,2470.24,13.32,0.112,190.2
2020-04-13T02:52:03,42.805,6.029,-0.03,-0.097,-0.019,106.0,106.0,103.0,13.4,1505.3,323.5,-0.7,1.8,2470.239,13.32,0.101,197.2
2020-04-13T02:55:03,42.805,6.029,-0.021,-0.115,0.017,107.0,104.0,102.0,13.4,1505.3,324.2,-0.7,1.8,2470.244,13.32,0.116,190.3
2020-04-13T02:58:03,42.805,6.029,-0.025,-0.099,-0.026,106.0,104.0,102.0,13.4,1505.3,323.6,-0.7,1.8,2470.262,13.32,0.102,194.2
2020-04-13T03:04:03,42.805,6.029,-0.015,-0.099,-0.015,107.0,105.0,100.0,13.3,1505.2,326.3,-0.8,1.8,2470.294,13.3,0.1,188.6
2020-04-13T03:07:03,42.805,6.029,-0.002,-0.082,0.009,106.0,106.0,103.0,13.4,1505.3,325.3,-0.7,1.8,2470.295,13.31,0.082,181.4
2020-04-13T03:10:03,42.805,6.029,-0.001,-0.071,-0.017,107.0,105.0,103.0,13.4,1505.3,324.8,-0.7,1.8,2470.26,13.31,0.071,180.8
2020-04-13T03:13:03,42.805,6.029,-0.008,-0.074,-0.026,107.0,105.0,103.0,13.3,1505.3,327.4,-0.7,1.9,2470.27,13.31,0.074,186.2
2020-04-13T03:16:03,42.805,6.029,-0.015,-0.095,-0.009,107.0,104.0,102.0,13.4,1505.3,325.2,-0.7,1.9,2470.254,13.32,0.096,189.0
2020-04-13T03:19:03,42.805,6.029,-0.006,-0.102,-0.016,105.0,105.0,101.0,13.4,1505.3,326.9,-0.7,1.8,2470.258,13.32,0.102,183.4
2020-04-13T03:22:03,42.805,6.029,-0.017,-0.1,-0.028,105.0,105.0,103.0,13.4,1505.3,324.5,-0.7,1.9,2470.234,13.32,0.101,189.6
2020-04-13T03:25:03,42.805,6.029,-0.007,-0.097,-0.023,106.0,105.0,103.0,13.3,1505.3,326.7,-0.7,1.9,2470.258,13.32,0.097,184.1
2020-04-13T03:28:03,42.805,6.029,-0.012,-0.091,-0.014,107.0,105.0,103.0,13.3,1505.3,324.6,-0.7,1.8,2470.278,13.32,0.091,187.5
2020-04-13T03:31:03,42.805,6.029,-0.009,-0.089,-0.015,107.0,106.0,103.0,13.4,1505.3,327.8,-0.7,1.8,2470.272,13.32,0.089,185.8
2020-04-13T03:34:03,42.805,6.029,-0.029,-0.076,-0.045,106.0,105.0,103.0,13.4,1505.3,328.1,-0.7,1.8,2470.245,13.32,0.081,200.9
2020-04-13T03:37:03,42.805,6.029,-0.009,-0.077,-0.017,108.0,105.0,102.0,13.4,1505.3,327.8,-0.7,1.8,2470.284,13.32,0.077,186.7
2020-04-13T03:40:03,42.805,6.029,-0.006,-0.068,-0.035,104.0,106.0,102.0,13.3,1505.3,327.1,-0.7,1.8,2470.257,13.32,0.068,185.0
2020-04-13T03:43:03,42.805,6.029,0.007,-0.099,-0.055,107.0,105.0,102.0,13.3,1505.3,325.5,-0.8,1.8,2470.26,13.32,0.099,176.0
2020-04-13T03:46:03,42.805,6.029,-0.021,-0.076,-0.025,107.0,105.0,102.0,13.4,1505.3,324.4,-0.7,1.8,2470.227,13.32,0.078,195.4
2020-04-13T03:49:03,42.805,6.029,-0.028,-0.08,-0.017,107.0,105.0,102.0,13.3,1505.3,326.9,-0.7,1.8,2470.235,13.32,0.084,199.3
2020-04-13T03:52:03,42.805,6.029,-0.012,-0.07,-0.01,107.0,106.0,102.0,13.3,1505.3,327.2,-0.7,1.9,2470.251,13.32,0.071,189.7
2020-04-13T03:55:03,42.805,6.029,-0.02,-0.098,-0.017,107.0,107.0,102.0,13.3,1505.3,327.8,-0.7,1.8,2470.257,13.32,0.1,191.5
2020-04-13T03:58:03,42.805,6.029,-0.026,-0.109,-0.021,106.0,106.0,103.0,13.4,1505.3,326.4,-0.7,1.8,2470.241,13.32,0.112,193.4
2020-04-13T04:04:03,42.805,6.029,-0.033,-0.101,-0.007,106.0,107.0,103.0,13.4,1505.2,325.6,-0.7,1.8,2470.307,13.3,0.106,198.1
2020-04-13T04:07:03,42.805,6.029,-0.008,-0.086,-0.009,107.0,107.0,103.0,13.3,1505.3,327.4,-0.7,1.8,2470.237,13.31,0.086,185.3
2020-04-13T04:10:03,42.805,6.029,-0.004,-0.093,-0.032,105.0,104.0,103.0,13.3,1505.3,327.7,-0.7,1.8,2470.239,13.31,0.093,182.5
2020-04-13T04:13:03,42.805,6.029,-0.023,-0.094,-0.031,106.0,106.0,103.0,13.3,1505.3,328.1,-0.7,1.9,2470.243,13.31,0.096,193.7
2020-04-13T04:16:03,42.805,6.029,0.012,-0.101,-0.017,107.0,107.0,102.0,13.4,1505.3,325.9,-0.7,1.8,2470.246,13.32,0.101,173.2
2020-04-13T04:19:03,42.805,6.029,0.008,-0.091,0.009,106.0,106.0,103.0,13.4,1505.3,325.5,-0.7,1.8,2470.211,13.32,0.091,175.0
2020-04-13T04:22:03,42.805,6.029,-0.002,-0.089,0.008,107.0,105.0,103.0,13.4,1505.3,327.0,-0.7,1.9,2470.247,13.32,0.089,181.3
2020-04-13T04:25:03,42.805,6.029,0.001,-0.131,-0.05,107.0,106.0,103.0,13.4,1505.3,325.0,-0.7,1.8,2470.264,13.32,0.131,179.6
2020-04-13T04:28:03,42.805,6.029,0.0,-0.101,-0.014,106.0,106.0,101.0,13.4,1505.3,324.1,-0.7,1.8,2470.275,13.32,0.101,180.0
2020-04-13T04:31:03,42.805,6.029,-0.02,-0.078,0.02,106.0,106.0,102.0,13.4,1505.3,326.0,-0.7,1.8,2470.249,13.32,0.08,194.4
2020-04-13T04:34:03,42.805,6.029,-0.004,-0.067,-0.034,105.0,106.0,102.0,13.4,1505.3,324.4,-0.7,1.8,2470.283,13.32,0.067,183.4
2020-04-13T04:37:03,42.805,6.029,-0.008,-0.084,-0.032,107.0,106.0,102.0,13.4,1505.3,326.4,-0.7,1.8,2470.303,13.32,0.084,185.4
2020-04-13T04:40:03,42.805,6.029,-0.007,-0.098,-0.044,105.0,106.0,102.0,13.3,1505.3,326.1,-0.7,1.8,2470.229,13.32,0.098,184.1
2020-04-13T04:43:03,42.805,6.029,-0.022,-0.085,-0.015,106.0,106.0,103.0,13.4,1505.3,326.1,-0.7,1.8,2470.203,13.32,0.087,194.5
2020-04-13T04:46:03,42.805,6.029,-0.007,-0.078,0.013,106.0,103.0,103.0,13.4,1505.3,324.4,-0.7,1.9,2470.234,13.32,0.078,185.1
2020-04-13T04:49:03,42.805,6.029,-0.007,-0.075,-0.02,106.0,106.0,102.0,13.4,1505.3,324.8,-0.7,1.8,2470.264,13.32,0.075,185.3
2020-04-13T04:52:03,42.805,6.029,0.007,-0.072,0.001,106.0,106.0,103.0,13.3,1505.3,326.7,-0.7,1.8,2470.191,13.32,0.072,174.5
2020-04-13T04:55:03,42.805,6.029,-0.012,-0.111,-0.028,106.0,105.0,103.0,13.4,1505.3,326.5,-0.7,1.9,2470.154,13.32,0.111,186.2
2020-04-13T04:58:03,42.805,6.029,0.0,-0.084,0.016,106.0,104.0,103.0,13.4,1505.3,326.3,-0.7,1.8,2470.2,13.32,0.083,180.0
2020-04-13T05:04:03,42.805,6.029,-0.019,-0.086,-0.003,106.0,105.0,102.0,13.3,1505.2,327.4,-0.7,1.8,2470.25,13.3,0.088,192.5
2020-04-13T05:07:03,42.805,6.029,-0.005,-0.071,-0.02,106.0,108.0,103.0,13.4,1505.3,327.1,-0.7,1.8,2470.271,13.31,0.071,184.0
2020-04-13T05:10:03,42.805,6.029,-0.003,-0.094,-0.043,108.0,105.0,101.0,13.4,1505.3,327.0,-0.7,1.8,2470.246,13.31,0.094,181.8
2020-04-13T05:13:03,42.805,6.029,0.001,-0.077,0.006,107.0,106.0,102.0,13.4,1505.3,324.8,-0.7,1.8,2470.188,13.31,0.077,179.3
2020-04-13T05:16:03,42.805,6.029,-0.022,-0.098,-0.02,107.0,106.0,102.0,13.3,1505.3,326.2,-0.7,1.9,2470.247,13.32,0.1,192.7
2020-04-13T05:19:03,42.805,6.029,-0.012,-0.099,-0.012,107.0,105.0,103.0,13.3,1505.3,326.5,-0.7,1.8,2470.233,13.32,0.099,186.9
2020-04-13T05:22:03,42.805,6.029,0.0,-0.113,-0.025,105.0,105.0,103.0,13.4,1505.3,324.8,-0.7,1.8,2470.219,13.32,0.113,180.0
2020-04-13T05:25:03,42.805,6.029,-0.006,-0.099,-0.022,107.0,105.0,102.0,13.4,1505.3,324.7,-0.7,1.8,2470.222,13.32,0.099,183.5
2020-04-13T05:28:03,42.805,6.029,-0.007,-0.098,0.003,106.0,106.0,102.0,13.3,1505.3,324.3,-0.7,1.8,2470.253,13.32,0.098,184.1
2020-04-13T05:34:03,42.805,6.029,-0.003,-0.066,-0.037,106.0,107.0,102.0,13.4,1505.2,326.0,-0.8,1.8,2470.256,13.3,0.066,182.6
2020-04-13T05:37:03,42.805,6.029,-0.011,-0.105,-0.005,107.0,106.0,103.0,13.4,1505.3,326.8,-0.7,1.8,2470.213,13.31,0.105,186.0
2020-04-13T05:40:03,42.805,6.029,-0.002,-0.103,0.02,107.0,106.0,103.0,13.4,1505.3,327.0,-0.7,1.8,2470.235,13.31,0.103,181.1
2020-04-13T05:43:03,42.805,6.029,0.0,-0.103,-0.033,106.0,106.0,103.0,13.4,1505.3,322.9,-0.7,1.8,2470.251,13.31,0.103,180.0
2020-04-13T05:46:03,42.805,6.029,0.01,-0.093,-0.015,107.0,106.0,103.0,13.4,1505.3,326.3,-0.7,1.8,2470.225,13.32,0.093,173.9
2020-04-13T05:49:03,42.805,6.029,-0.032,-0.088,-0.039,106.0,106.0,102.0,13.4,1505.3,325.3,-0.7,1.8,2470.246,13.32,0.093,200.0
2020-04-13T05:52:03,42.805,6.029,-0.016,-0.094,-0.037,106.0,105.0,103.0,13.3,1505.3,325.5,-0.7,1.8,2470.238,13.32,0.095,189.7
2020-04-13T05:55:03,42.805,6.029,-0.011,-0.051,-0.018,106.0,105.0,102.0,13.3,1505.3,328.8,-0.7,1.9,2470.256,13.32,0.052,192.2
2020-04-13T05:58:03,42.805,6.029,-0.009,-0.102,-0.033,105.0,106.0,103.0,13.4,1505.3,325.5,-0.7,1.8,2470.23,13.32,0.102,185.0
2020-04-13T06:04:03,42.805,6.029,-0.023,-0.11,0.006,106.0,105.0,102.0,13.3,1505.2,324.4,-0.7,1.8,2470.208,13.3,0.112,191.8
2020-04-13T06:07:03,42.805,6.029,0.01,-0.093,-0.016,107.0,105.0,103.0,13.4,1505.3,326.9,-0.7,1.8,2470.247,13.31,0.093,173.9
2020-04-13T06:10:03,42.805,6.029,-0.012,-0.086,-0.033,106.0,105.0,102.0,13.4,1505.3,325.5,-0.7,1.9,2470.208,13.31,0.086,187.9
2020-04-13T06:13:03,42.805,6.029,0.007,-0.082,0.014,106.0,105.0,103.0,13.4,1505.3,323.5,-0.7,1.8,2470.222,13.31,0.082,175.1
2020-04-13T06:16:03,42.805,6.029,0.0,-0.092,-0.019,106.0,105.0,103.0,13.3,1505.3,325.2,-0.7,1.8,2470.188,13.32,0.092,180.0
2020-04-13T06:19:03,42.805,6.029,-0.001,-0.069,-0.004,107.0,106.0,103.0,13.4,1505.3,323.7,-0.7,1.9,2470.25,13.32,0.069,180.8
2020-04-13T06:22:03,42.805,6.029,0.027,-0.111,0.0,107.0,107.0,103.0,13.3,1505.3,324.0,-0.7,1.8,2470.211,13.32,0.114,166.3
2020-04-13T06:25:03,42.805,6.029,-0.008,-0.071,0.01,107.0,104.0,104.0,13.4,1505.3,323.6,-0.7,1.9,2470.184,13.32,0.071,186.4
2020-04-13T06:28:03,42.805,6.029,-0.004,-0.099,-0.006,107.0,106.0,103.0,13.4,1505.3,325.3,-0.7,1.9,2470.232,13.32,0.099,182.3
2020-04-13T06:31:03,42.805,6.029,0.006,-0.082,-0.017,107.0,106.0,103.0,13.3,1505.3,324.8,-0.7,1.8,2470.225,13.32,0.082,175.8
2020-04-13T06:34:03,42.805,6.029,-0.009,-0.078,0.0,106.0,105.0,103.0,13.3,1505.3,324.1,-0.7,1.8,2470.217,13.32,0.078,186.6
2020-04-13T06:37:03,42.805,6.029,-0.002,-0.118,-0.018,105.0,106.0,103.0,13.4,1505.3,324.1,-0.7,1.8,2470.237,13.32,0.118,181.0
2020-04-13T06:40:03,42.805,6.029,0.005,-0.077,-0.029,106.0,106.0,103.0,13.3,1505.3,324.6,-0.7,1.9,2470.198,13.32,0.077,176.3
2020-04-13T06:43:03,42.805,6.029,-0.004,-0.089,-0.031,106.0,106.0,104.0,13.3,1505.3,325.3,-0.7,1.8,2470.2,13.32,0.089,182.6
2020-04-13T06:46:03,42.805,6.029,-0.022,-0.093,-0.021,105.0,107.0,103.0,13.3,1505.3,328.0,-0.7,1.8,2470.249,13.32,0.095,193.3
2020-04-13T06:49:03,42.805,6.029,-0.013,-0.102,-0.032,107.0,106.0,103.0,13.4,1505.3,327.1,-0.7,1.9,2470.197,13.32,0.102,187.3
2020-04-13T06:52:03,42.805,6.029,-0.005,-0.081,0.0,107.0,106.0,103.0,13.4,1505.3,328.2,-0.7,1.9,2470.22,13.32,0.081,183.5
2020-04-13T06:55:03,42.805,6.029,-0.003,-0.088,-0.015,107.0,105.0,102.0,13.3,1505.3,327.7,-0.7,1.8,2470.175,13.32,0.088,182.0
2020-04-13T06:58:03,42.805,6.029,-0.005,-0.106,-0.003,108.0,106.0,102.0,13.4,1505.3,326.2,-0.7,1.9,2470.243,13.32,0.106,182.7
2020-04-13T07:04:03,42.805,6.029,-0.02,-0.124,-0.033,107.0,107.0,102.0,13.3,1505.2,328.1,-0.8,1.8,2470.266,13.3,0.125,189.2
2020-04-13T07:07:03,42.805,6.029,-0.008,-0.106,0.02,107.0,105.0,102.0,13.4,1505.3,326.1,-0.7,1.8,2470.273,13.31,0.106,184.3
2020-04-13T07:10:03,42.805,6.029,-0.001,-0.104,-0.031,106.0,106.0,103.0,13.3,1505.3,327.6,-0.7,1.8,2470.264,13.31,0.104,180.5
2020-04-13T07:13:03,42.805,6.029,-0.017,-0.111,0.006,107.0,106.0,102.0,13.4,1505.3,324.9,-0.7,1.8,2470.266,13.31,0.112,188.7
2020-04-13T07:16:03,42.805,6.029,-0.014,-0.092,-0.011,105.0,106.0,102.0,13.4,1505.3,326.6,-0.7,1.8,2470.261,13.32,0.093,188.7
2020-04-13T07:19:03,42.805,6.029,-0.013,-0.09,-0.032,105.0,105.0,104.0,13.4,1505.3,326.5,-0.7,1.8,2470.263,13.32,0.09,188.2
2020-04-13T07:22:03,42.805,6.029,0.012,-0.09,-0.037,107.0,105.0,103.0,13.4,1505.3,324.7,-0.7,1.8,2470.243,13.32,0.09,172.4
2020-04-13T07:25:03,42.805,6.029,0.0,-0.082,-0.035,106.0,106.0,102.0,13.4,1505.3,323.4,-0.7,1.8,2470.215,13.32,0.081,180.0
2020-04-13T07:28:03,42.805,6.029,0.0,-0.108,-0.053,107.0,107.0,102.0,13.4,1505.3,327.7,-0.7,1.8,2470.239,13.32,0.107,180.0
2020-04-13T07:31:03,42.805,6.029,0.007,-0.094,-0.019,107.0,104.0,103.0,13.4,1505.3,325.1,-0.7,1.8,2470.25,13.32,0.094,175.7
2020-04-13T07:34:03,42.805,6.029,-0.002,-0.106,-0.027,106.0,106.0,102.0,13.3,1505.3,324.0,-0.7,1.9,2470.271,13.32,0.106,181.1
2020-04-13T07:37:03,42.805,6.029,0.0,-0.079,-0.055,107.0,106.0,102.0,13.4,1505.3,328.1,-0.8,1.8,2470.258,13.32,0.078,180.0
2020-04-13T07:40:03,42.805,6.029,0.016,-0.077,-0.004,106.0,106.0,103.0,13.3,1505.3,324.5,-0.7,1.8,2470.195,13.32,0.078,168.3
2020-04-13T07:43:03,42.805,6.029,-0.002,-0.072,-0.022,106.0,106.0,103.0,13.4,1505.3,326.0,-0.7,1.8,2470.256,13.32,0.072,181.6
2020-04-13T07:46:03,42.805,6.029,0.014,-0.085,-0.028,106.0,106.0,102.0,13.4,1505.3,323.4,-0.7,1.8,2470.295,13.32,0.086,170.6
2020-04-13T07:49:03,42.805,6.029,0.014,-0.097,-0.014,106.0,107.0,103.0,13.3,1505.3,326.0,-0.7,1.8,2470.262,13.32,0.098,171.8
2020-04-13T07:52:03,42.805,6.029,0.018,-0.105,-0.038,107.0,106.0,103.0,13.4,1505.3,326.8,-0.7,1.8,2470.258,13.32,0.106,170.3
2020-04-13T07:55:03,42.805,6.029,-0.002,-0.108,-0.032,105.0,105.0,102.0,13.3,1505.3,326.3,-0.7,1.8,2470.222,13.32,0.108,181.1
2020-04-13T07:58:03,42.805,6.029,0.001,-0.089,-0.019,106.0,105.0,102.0,13.4,1505.3,324.1,-0.7,1.9,2470.227,13.32,0.088,179.4
2020-04-13T08:04:03,42.805,6.029,0.009,-0.095,-0.04,105.0,106.0,103.0,13.4,1505.2,326.4,-0.7,1.8,2470.278,13.3,0.095,174.6
2020-04-13T08:07:03,42.805,6.029,-0.012,-0.093,-0.025,105.0,106.0,102.0,13.4,1505.3,324.4,-0.7,1.8,2470.269,13.31,0.093,187.3
2020-04-13T08:10:03,42.805,6.029,0.002,-0.088,-0.019,108.0,105.0,103.0,13.4,1505.3,327.9,-0.7,1.8,2470.308,13.31,0.088,178.7
2020-04-13T08:13:03,42.805,6.029,-0.022,-0.099,-0.031,106.0,106.0,103.0,13.4,1505.3,325.9,-0.7,1.8,2470.272,13.31,0.101,192.5
2020-04-13T08:16:03,42.805,6.029,0.006,-0.089,-0.033,107.0,106.0,103.0,13.4,1505.3,328.4,-0.7,1.8,2470.237,13.32,0.089,176.1
2020-04-13T08:19:03,42.805,6.029,0.029,-0.074,-0.007,107.0,106.0,102.0,13.4,1505.3,323.6,-0.7,1.8,2470.257,13.32,0.079,158.6
2020-04-13T08:22:03,42.805,6.029,0.014,-0.094,-0.041,107.0,107.0,103.0,13.4,1505.3,323.4,-0.7,1.8,2470.264,13.32,0.095,171.5
2020-04-13T08:25:03,42.805,6.029,0.001,-0.082,-0.027,106.0,106.0,103.0,13.4,1505.3,326.7,-0.8,1.8,2470.256,13.32,0.082,179.3
2020-04-13T08:28:03,42.805,6.029,-0.016,-0.102,-0.049,108.0,106.0,103.0,13.4,1505.3,326.0,-0.7,1.8,2470.286,13.32,0.103,188.9
2020-04-13T08:31:03,42.805,6.029,0.0,-0.091,-0.045,107.0,106.0,103.0,13.4,1505.3,327.6,-0.7,1.8,2470.265,13.32,0.091,180.0
2020-04-13T08:34:03,42.805,6.029,0.001,-0.095,-0.011,106.0,106.0,102.0,13.4,1505.3,326.9,-0.7,1.8,2470.271,13.32,0.095,179.4
2020-04-13T08:37:03,42.805,6.029,-0.023,-0.083,-0.006,106.0,105.0,103.0,13.4,1505.3,325.7,-0.7,1.8,2470.268,13.32,0.086,195.5
2020-04-13T08:40:03,42.805,6.029,-0.003,-0.079,-0.005,106.0,106.0,104.0,13.4,1505.3,323.0,-0.7,1.8,2470.297,13.32,0.079,182.2
2020-04-13T08:43:03,42.805,6.029,0.015,-0.076,-0.016,107.0,106.0,103.0,13.4,1505.3,324.5,-0.7,1.8,2470.257,13.32,0.077,168.8
2020-04-13T08:46:03,42.805,6.029,0.017,-0.088,-0.043,106.0,107.0,103.0,13.4,1505.3,327.3,-0.7,1.8,2470.241,13.32,0.089,169.1
2020-04-13T08:49:03,42.805,6.029,0.016,-0.097,-0.02,105.0,105.0,103.0,13.4,1505.3,324.9,-0.7,1.9,2470.276,13.32,0.098,170.6
2020-04-13T08:52:03,42.805,6.029,-0.007,-0.116,-0.015,107.0,106.0,103.0,13.4,1505.3,325.1,-0.7,1.8,2470.279,13.32,0.116,183.4
2020-04-13T08:55:03,42.805,6.029,-0.006,-0.078,-0.033,106.0,106.0,103.0,13.3,1505.3,322.7,-0.7,1.8,2470.312,13.32,0.078,184.4
2020-04-13T08:58:03,42.805,6.029,0.015,-0.088,-0.004,106.0,106.0,104.0,13.4,1505.3,324.6,-0.7,1.8,2470.236,13.32,0.089,170.3
2020-04-13T09:04:03,42.805,6.029,0.003,-0.093,-0.046,105.0,106.0,103.0,13.3,1505.2,326.5,-0.7,1.9,2470.332,13.3,0.093,178.2
2020-04-13T09:07:03,42.805,6.029,0.009,-0.089,-0.017,106.0,106.0,103.0,13.3,1505.3,327.6,-0.7,1.9,2470.3,13.31,0.089,174.2
2020-04-13T09:10:03,42.805,6.029,-0.006,-0.103,-0.017,106.0,105.0,103.0,13.3,1505.3,324.4,-0.7,1.8,2470.299,13.31,0.103,183.3
2020-04-13T09:13:03,42.805,6.029,-0.009,-0.089,-0.028,106.0,106.0,103.0,13.3,1505.3,327.1,-0.7,1.8,2470.35,13.31,0.089,185.8
2020-04-13T09:16:03,42.805,6.029,-0.005,-0.081,-0.032,108.0,106.0,103.0,13.4,1505.3,327.6,-0.7,1.9,2470.266,13.32,0.081,183.5
2020-04-13T09:19:03,42.805,6.029,-0.009,-0.07,-0.046,106.0,106.0,103.0,13.4,1505.3,327.9,-0.7,1.8,2470.318,13.32,0.07,187.3
2020-04-13T09:22:03,42.805,6.029,0.012,-0.1,-0.031,105.0,106.0,103.0,13.3,1505.3,323.7,-0.7,1.8,2470.305,13.32,0.1,173.2
2020-04-13T09:25:03,42.805,6.029,-0.031,-0.113,-0.012,106.0,105.0,102.0,13.4,1505.3,325.3,-0.7,1.8,2470.314,13.32,0.117,195.3
2020-04-13T09:28:03,42.805,6.029,-0.002,-0.072,-0.045,106.0,105.0,104.0,13.4,1505.3,324.6,-0.7,1.8,2470.272,13.32,0.072,181.6
2020-04-13T09:31:03,42.805,6.029,0.006,-0.077,-0.017,107.0,106.0,103.0,13.4,1505.3,326.0,-0.7,1.8,2470.307,13.32,0.077,175.5
2020-04-13T09:34:03,42.805,6.029,-0.002,-0.095,-0.039,107.0,106.0,103.0,13.4,1505.3,324.9,-0.7,1.8,2470.293,13.32,0.095,181.2
2020-04-13T09:37:03,42.805,6.029,-0.023,-0.074,-0.015,105.0,106.0,103.0,13.4,1505.3,326.5,-0.7,1.8,2470.291,13.32,0.077,197.3
2020-04-13T09:40:03,42.805,6.029,-0.025,-0.093,-0.013,106.0,105.0,102.0,13.4,1505.3,327.9,-0.7,1.8,2470.298,13.32,0.096,195.0
2020-04-13T09:43:03,42.805,6.029,-0.024,-0.094,-0.023,105.0,106.0,104.0,13.4,1505.3,328.2,-0.7,1.8,2470.338,13.32,0.097,194.3
2020-04-13T09:46:03,42.805,6.029,-0.02,-0.106,-0.034,106.0,107.0,102.0,13.3,1505.3,327.2,-0.7,1.8,2470.272,13.32,0.107,190.7
2020-04-13T09:49:03,42.805,6.029,-0.017,-0.094,-0.01,106.0,107.0,102.0,13.4,1505.3,328.2,-0.7,1.9,2470.313,13.32,0.095,190.3
2020-04-13T09:52:03,42.805,6.029,0.001,-0.085,-0.016,106.0,106.0,101.0,13.4,1505.3,326.6,-0.7,1.8,2470.287,13.32,0.085,179.3
2020-04-13T09:55:03,42.805,6.029,-0.03,-0.103,-0.034,106.0,106.0,103.0,13.3,1505.3,324.1,-0.7,1.8,2470.265,13.32,0.107,196.2